www.pogodaiklimat.ru

Погода и климат >> Архив погоды >> Россия >> Краснодарский край >> Горный


ПОГОДА в Горном

  • Прогноз погоды в Горном
  • Монитор погоды в Горном
  • Климат города

АРХИВ ПОГОДЫ в Горном

Время (UTC), дата Ветер
(напр.,м/с)
 
Видим.   Явления Облачность Т
(С)
Тd
(С)
f
(%)
Тe
(С)
Тes
(С)
Комфортность P
(гПа)
Po
(гПа)
Тmin
(С)
Tmax
(С)
R
(мм)
R24
(мм)
S
(см)
09 13.08 ЮЗ 2 50 км 5/0
[Ac trans Ci fib]
+33.2 +16.6 37 +36 +49 очень
душно
1003.6 968.5
12 13.08 СВ 3 50 км 5/3 600 м
[Cu hum Ci fib]
+33.1 +17.5 39 +37 +43 очень
душно
1003.7 968.6
15 13.08 СВ 3 50 км 4/3 600 м
[Cu hum Ci fib]
+32.0 +16.6 40 +35 +36 очень
душно
1002.8 967.6 +34.3
18 13.08 С 2 50 км 4/4 600 м
[Sc]
+27.2 +17.8 56 +31 +31 душно 1003.9 968.1
21 13.08 ЮЗ 2
{10}
50 км 3/3 600 м
[Sc]
+24.7 +22.3 87 +32 +32 очень
душно
1005.2 969.1
00 14.08 ЮЗ 2 20 км 5/3 600 м
[Sc Ac lent]
+24.6 +18.6 69 +29 +29 душно 1006.0 969.8
03 14.08 штиль 0 20 км 8/4 600 м
[Sc Ac cast]
+21.0 +21.0 100 +26 +26 душно 1006.9 970.3 +20.9
06 14.08 ЮЗ 2 50 км 3/1 600 м
[Sc Ac cast]
+28.5 +21.3 65 +36 +42 очень
душно
1006.7 971.0
09 14.08 ЮЗ 3 50 км 8/4 600 м
[Sc Ac cast Ci sp]
+32.2 +17.1 40 +36 +41 очень
душно
1006.7 971.3
12 14.08 Ю 3
{10}
20 км гроза без осадков 8/4 600 м
[Cb calv Ac cast]
+33.3 +15.1 34 +35 +38 душно 1006.2 971.0
15 14.08 СВ 3
{14}
50 км в посл. час гроза {ливн. осадки} 8/5 600 м
[Sc diur, vesp Ac cuf]
+24.4 +19.2 73 +29 +30 душно 1008.5 972.1 +34.2 0.0
18 14.08 С 1 50 км {гроза, ливн. осадки} 3/3 600 м
[Sc diur, vesp Ac cuf]
+21.5 +21.5 100 +28 +28 очень
душно
1009.9 973.1
21 14.08 СВ 1 50 км ясно +19.6 +19.6 100 +24 +24 комфорт 1010.8 973.8
00 15.08 штиль 0 50 км местами туман поземный 5/5 600 м
[Sc]
+18.3 +18.3 100 +19 +19 1011.3 974.0
03 15.08 штиль 0 20 км местами туман поземный 9/9 600 м
[Sc]
+18.4 +18.4 100 +19 +19 1011.7 974.5 +18.0
06 15.08 Ю 1 50 км 1/0
[Ac lent]
+26.7 +19.3 64 +32 +41 очень
душно
1010.0 973.9
09 15.08 С 1 50 км 9/9 600 м
[Cu med, cong]
+29.3 +18.4 52 +34 +36 очень
душно
1009.0 973.3
12 15.08 В 3
{13}
20 км в посл. час гроза {ливн. осадки} [макс. диам. градин 12 мм] 10/10 600 м
[Cb cap]
+22.6 +17.5 73 +28 +28 душно 1012.1 975.4
15 15.08 штиль 0 50 км {ливн. осадки} 8/5 600 м
[Sc diur, vesp Ci fib]
+24.0 +17.5 67 +28 +29 душно 1010.5 974.0 +32.0 13
18 15.08 СВ 1 50 км местами туман поземный {ливн. осадки} ясно +18.6 +18.6 100 +21 +21 комфорт 1011.5 974.3
21 15.08 штиль 0 50 км местами туман поземный ясно +16.5 +16.5 100 +16 +16 1011.4 974.0
00 16.08 С 2 50 км местами туман поземный ясно +15.3 +15.3 100 +15 +15 1011.5 973.8
03 16.08 штиль 0 500 м туман 3/3 600 м
[Sc]
+14.7 +14.7 100 +14 +14 1011.7 974.0 +14.5
06 16.08 СВ 2 50 км {туман} 1/1 600 м
[Cu med, cong]
+22.3 +17.7 75 +27 +34 душно 1010.7 974.1
09 16.08 С 3 50 км 8/3 600 м
[Cu med, cong Ci]
+25.5 +15.0 52 +28 +36 жарко 1010.5 974.2
12 16.08 В 3 50 км в посл. час гроза 6/1 600 м
[Cu hum Ac cast Ci fib]
+28.1 +16.2 48 +31 +37 душно 1009.4 973.5
15 16.08 СВ 5-10
{11}
50 км 1/0
[Ci fib]
+28.2 +9.9 32 +28 +29 жарко 1008.6 972.6 +29.8
18 16.08 СВ 2
{10}
50 км ясно +23.7 +10.9 44 +25 +25 комфорт 1009.1 972.6
21 16.08 СВ 2 50 км ясно +19.5 +13.2 67 +22 +22 комфорт 1009.5 972.5
00 17.08 С 1 50 км 5/0
[Ac trans]
+15.6 +15.6 100 +16 +16 1010.1 972.6
03 17.08 СВ 1 50 км гроза без осадков 9/6 600 м
[Cb cap Ci ing]
+16.1 +16.1 100 +17 +17 1010.4 972.9 +15.6
06 17.08 С 3 20 км {гроза} 10/8 600 м
[Cb calv Ci ing]
+21.0 +14.1 65 +24 +25 комфорт 1009.8 973.0
09 17.08 С 3 50 км 8/3 600 м
[Sc Ci sp]
+26.5 +15.3 50 +29 +37 жарко 1009.6 973.5
12 17.08 СВ 3 50 км 6/3 600 м
[Sc Ci fib]
+29.8 +15.5 42 +33 +38 душно 1008.1 972.4
15 17.08 В 3 20 км гроза без осадков 10/6 600 м
[Cb cap Ci ing]
+27.7 +17.2 53 +32 +32 очень
душно
1008.1 972.2 +30.0
18 17.08 СВ 2 20 км {гроза} 8/8 600 м
[Sc diur, vesp]
+21.7 +14.3 63 +25 +25 комфорт 1009.0 972.3
21 17.08 С 2 50 км 4/4 600 м
[Sc]
+18.7 +15.3 81 +20 +20 1009.2 972.2
00 18.08 штиль 0 50 км зарница 5/3 600 м
[Cb cap Ci]
+16.5 +16.5 100 +16 +16 1009.7 972.4
03 18.08 В 1 50 км местами туман поземный 4/3 600 м
[Sc diur, vesp Ci ing]
+15.4 +15.4 100 +16 +16 1011.5 973.8 +15.3
06 18.08 В 2 50 км 5/0
[Ac cast Ci fib]
+24.3 +16.3 61 +28 +33 душно 1011.4 975.0
09 18.08 СВ 2 50 км 5/3 600 м
[Cu med, cong Ac cast]
+28.2 +16.5 49 +32 +40 душно 1011.5 975.5
12 18.08 СВ 4 50 км 8/5 600 м
[Cu med, cong Ac cast Ci sp]
+29.5 +15.8 43 +32 +35 душно 1011.2 975.4
15 18.08 СВ 3 50 км 8/0
[Ac cast Ci]
+26.2 +13.1 44 +28 +29 жарко 1011.4 975.1 +30.3
18 18.08 С 3 50 км ясно +22.1 +13.1 57 +25 +25 комфорт 1012.0 975.2
21 18.08 штиль 0 50 км ясно +17.9 +13.5 75 +18 +18 1012.5 975.2
00 19.08 СВ 1 50 км ясно +15.7 +15.7 100 +16 +16 1012.7 975.1
03 19.08 С 1 50 км местами туман поземный 8/3 600 м
[Sc Ac cast Ci fib]
+15.3 +13.5 89 +16 +16 1012.5 976.0 +15.1
06 19.08 С 2 50 км 9/4 600 м
[Sc Ac cast Ci]
+20.4 +15.4 73 +24 +26 комфорт 1013.6 976.5
09 19.08 СВ 3 50 км 9/3 600 м
[Sc Ci]
+27.2 +17.1 54 +31 +39 душно 1012.6 976.5
12 19.08 СВ 4 50 км 9/8 600 м
[Sc diur, vesp Ci]
+28.6 +16.6 48 +32 +33 душно 1012.7 976.7
15 19.08 СВ 3
{12}
50 км в посл. час гроза {ливн. осадки} 5/5 600 м
[Cb calv]
+20.5 +19.5 94 +25 +25 комфорт 1013.9 976.9 +28.9 5
18 19.08 СВ 3 50 км местами туман поземный {гроза} 1/1 600 м
[Sc diur, vesp]
+19.0 +19.0 100 +21 +21 комфорт 1013.2 976.7
21 19.08 С 2 50 км местами туман поземный 1/1 600 м
[Sc]
+16.7 +16.7 100 +17 +17 1013.7 976.2
00 20.08 С 1 50 км местами туман поземный ясно +15.3 +15.3 100 +16 +16 1013.7 975.9
03 20.08 С 1 50 км местами туман поземный 3/0
[Ac cast]
+14.9 +14.9 100 +15 +15 1013.7 975.9 +14.6
06 20.08 СВ 1 50 км 3/0
[Ac cast]
+22.3 +17.5 74 +27 +34 душно 1012.6 975.9

 

Местоположение метеостанции Горный (Краснодарский край, Россия): широта 44.28 долгота 39.27 высота над уровнем моря 323 м.

В архиве по умолчанию представлена погода в Горном за последнюю неделю. Архивные данные за месяц целиком и за предыдущие месяцы, начиная с января 2011 года, Вы можете получить, выбрав интересующий диапазон дат из раскрывающегося списка и нажав кнопку "Ввод!".

Внимание! Время в таблицах - всемирное. Для получения местного времени необходимо прибавить поправку, которая в Горном равна 3 ч.

Смотрите также архив погоды в соседних городах и на ближайших метеорологических станциях:

Погода в Туапсе (Краснодарский край, Россия) (26 км)
Погода в Горячем Ключе (Краснодарский край, Россия) (41 км)
Погода в Джубге (Краснодарский край, Россия) (44 км)
Погода в Шунтуке (Адыгея, Россия) (71 км)
Погода в Белореченске (Краснодарский край, Россия) (72 км)
Погода в Майкопе (Адыгея, Россия) (75 км)
Погода в Гузерипле (Адыгея, Россия) (75 км)
Погода в Сочи (Краснодарский край, Россия) (88 км)
Погода в Краснодаре (Краснодарский край, Россия) (88 км)
Погода в Кепше (Краснодарский край, Россия) (96 км)

Пояснения к столбцам:

Ветер - указаны скорость ветра в м/с - средняя за 10 мин, порывы в срок и между сроками (в фигурных скобках) и направление, откуда дует ветер: С - северный, СВ - северо-восточный, В - восточный, ЮВ - юго-восточный, Ю - южный, ЮЗ - юго-западный, З - западный, СЗ - северо-западный.
Видимость - горизонтальная дальность видимости в метрах или километрах. При видимости от 1 до 10 км при отсутствии осадков обычно наблюдается дымка, при ухудшении видимости до 1 км и менее - туман. В сухую погоду видимость может ухудшаться дымом, пылью или мглою.
Явления - указаны атмосферные явления, наблюдавшиеся в срок или в последний час перед сроком; фигурными скобками обозначены явления, наблюдавшиеся между сроками (за 1-3 часа до срока); квадратными скобками обозначены град или гололедные отложения с указанием их диаметра в мм.
Облачность - указаны через наклонную черту общая и нижняя облачность в баллах и высота нижней границы облаков в метрах; квадратными скобками обозначены формы облаков: Ci - перистые, Cs - перисто-слоистые, Cc - перисто-кучевые, Ac - высококучевые, As - высокослоистые, Sc - слоисто-кучевые, Ns - слоисто-дождевые, Cu - кучевые, Cb - кучево-дождевые. Подробнее классификацию облаков см. в Атласе облаков (PDF).
T - Температура воздуха - температура, измеренная на высоте 2 м над землей.
Td - Температура точки росы - температура, при понижении до которой содержащийся в воздухе водяной пар достигнет насыщения.
f - Относительная влажность воздуха - влажноcть воздуха, измеренная на высоте 2 м над землей.
Te - Эффективная температура - температура, которую ощущает одетый по сезону человек в тени. Характеристика душности погоды. При расчете учитывается влияние влажности воздуха и скорости ветра на теплоощущения человека.
Tes - Эффективная температура на солнце - температура, которую ощущает человек, с поправкой на солнечный нагрев. Характеристика знойности погоды. Зависит от высоты солнца над горизонтом, облачности и скорости ветра. Ночью, в пасмурную погоду, а также при ветре 12 м/с и более поправка равна нулю.
P - Атмосферное давление - приведенное к уровню моря атмосферное давление.
Po - Атмосферное давление - измеренное на уровне метеостанции атмосферное давление.
Tmin - Минимальная температура - минимум температуры воздуха на высоте 2 м над землей.
Tmax - Максимальная температура - максимум температуры воздуха на высоте 2 м над землей.
R - Количество осадков - Количество выпавших осадков за период времени, мм. При наведении курсора мыши на число - период времени, за который выпало указанное количество осадков.
R24 - Количество осадков - Количество выпавших осадков за 24 часа, мм.
S - Снежный покров - Высота снежного покрова, см. При наведении курсора мыши на число - состояние снежного покрова и степень покрытия местности в баллах.